[[{"header":{"parameterUnit":"m.s-1","parameterCategory":1,"la1":30.2991,"la2":30.254,"lo1":-89.0895,"lo2":-89.0444,"dy":0.0017,"dx":0.0017,"nx":28,"ny":28,"refTime":"2026-01-05T09:00:00:Z","depth":0,"parameterNumber":2,"parameterNumberName":"U-component_of_WINDS"},"data":[0,0,0,0,0,0,0,0,0,0,0,0,0,0,0,0,0,0,0,0,0,0,0,0,0,0,0,0,0,0,0,0,0,0,0,0,0,0,0,0,0,0,0,0,0,0,0,0,0,0,0,0,0,0,0,0,0,0,-3.4747,-3.4749,0,-3.4916,-3.4918,-3.492,-3.4929,-3.4927,-3.4925,-3.4923,-3.5099,-3.5105,-3.5112,0,0,0,0,0,0,0,0,0,0,0,0,0,-3.4435,-3.4441,-3.4747,-3.4749,-3.4751,-3.4916,-3.4918,-3.4921,-3.4929,-3.4927,-3.4924,-3.4922,-3.5097,-3.5105,-3.5112,0,0,0,0,0,0,0,0,0,0,0,0,0,-3.4584,-3.4442,-3.4747,-3.4775,-3.478,-3.4916,-3.4918,-3.4921,-3.493,-3.4927,-3.4924,-3.4921,-3.5094,-3.5104,-3.5113,-3.5233,0,0,-3.5143,-3.5148,0,0,0,0,0,0,0,0,-3.4576,-3.4595,-3.4769,-3.4774,-3.4779,-3.4898,-3.4873,-3.5026,-3.493,-3.4873,-3.4923,-3.492,-3.5035,-3.5049,-3.5088,-3.5241,-3.5249,-3.5144,-3.515,-3.5154,-3.5157,0,0,0,0,0,0,0,-3.4565,-3.4588,-3.4814,-3.4772,-3.4777,-3.4781,-3.4799,-3.4902,-3.4968,-3.4878,-3.4879,-3.4898,-3.5037,-3.5078,-3.5092,-3.5251,-3.5144,-3.5153,-3.5159,-3.5163,-3.5513,-3.5516,0,0,0,0,0,0,-3.4549,-3.458,-3.4809,-3.4819,-3.4668,-3.4789,-3.4809,-3.4863,-3.4967,-3.498,-3.4901,-3.4898,-3.5063,-3.508,-3.5098,-3.5244,-3.5154,-3.5163,-3.5169,-3.5509,-3.5513,-3.5517,0,0,0,0,0,0,-3.4542,-3.4569,-3.4802,-3.47,-3.473,-3.4797,-3.4858,-3.4868,-3.4909,-3.4985,-3.4997,-3.493,-3.5061,-3.5084,-3.5199,-3.5251,-3.5168,-3.5177,-3.5505,-3.5511,-3.5515,-3.5538,0,0,0,0,0,0,-3.4533,-3.4567,-3.4612,-3.4701,-3.4735,-3.4899,-3.4861,-3.4873,-3.4926,-3.4924,-3.5016,-3.5028,-3.5061,-3.5185,-3.5209,-3.5263,-3.5184,-3.5501,-3.5508,-3.5514,-3.5533,-3.5543,-3.5552,0,0,0,0,0,-3.4522,-3.4612,-3.4614,-3.4642,-3.4793,-3.4902,-3.4922,-3.4956,-3.493,-3.4976,-3.5025,-3.5025,-3.5242,-3.5196,-3.5224,-3.5281,-3.5498,-3.5506,-3.5513,-3.5529,-3.5541,-3.5552,0,0,0,0,0,0,-3.4528,-3.4624,-3.4627,-3.4748,-3.4817,-3.4903,-3.4962,-3.4969,-3.5047,-3.5042,-3.5083,-3.5104,-3.5217,-3.5262,-3.5209,-3.5403,-3.5367,-3.538,-3.5369,-3.5382,-3.5391,-3.5377,-3.5193,0,0,0,0,0,-3.4543,-3.4623,-3.4703,-3.4803,-3.4837,-3.4894,-3.4943,-3.4964,-3.5037,-3.5066,-3.5123,-3.5195,-3.5279,-3.5333,-3.5415,-3.5541,-3.5561,-3.5594,-3.5603,-3.5611,-3.5621,-3.5691,-3.5706,-3.5543,-3.5542,-3.5542,0,0,-3.4575,-3.4638,-3.4686,-3.4805,-3.4861,-3.4943,-3.4918,-3.5006,-3.5068,-3.508,-3.5191,-3.5236,-3.5319,-3.5439,-3.5496,-3.548,-3.5672,-3.5621,-3.5626,-3.5633,-3.5701,-3.5716,-3.573,-3.5548,-3.5547,-3.5546,0,0,-3.4676,-3.4732,-3.482,-3.4876,-3.496,-3.4998,-3.502,-3.5106,-3.5136,-3.5249,-3.5259,-3.5334,-3.5479,-3.5537,-3.5586,-3.5711,-3.5714,-3.5737,-3.5786,-3.5854,-3.5866,-3.5878,-3.5922,-3.5937,-3.5748,-3.5748,-3.5748,0,-3.4705,-3.4828,-3.4865,-3.4953,-3.5005,-3.502,-3.511,-3.5164,-3.5271,-3.5307,-3.5288,-3.547,-3.5527,-3.5661,-3.5692,-3.5731,-3.5757,-3.5725,-3.5862,-3.5874,-3.5885,-3.5927,-3.5943,-3.575,-3.575,-3.575,-3.5749,0,-3.486,-3.4946,-3.5008,-3.511,-3.517,-3.5259,-3.5309,-3.5366,-3.5383,-3.5423,-3.5539,-3.5608,-3.5704,-3.5738,-3.5756,-3.5876,-3.5863,-3.5853,-3.5817,-3.5902,-3.5942,-3.5959,-3.5753,-3.5752,-3.5752,-3.5751,0,0,-3.4965,-3.5088,-3.5109,-3.5156,-3.5251,-3.5319,-3.541,-3.5503,-3.5551,-3.5626,-3.5702,-3.5825,-3.5816,-3.5871,-3.5897,-3.5956,-3.605,-3.5938,-3.5941,-3.5955,-3.6186,-3.6191,-3.6209,-3.6054,-3.6057,-3.606,-3.6178,0,-3.5074,-3.5234,-3.527,-3.5408,-3.5488,-3.5504,-3.5584,-3.5651,-3.5692,-3.5767,-3.5814,-3.5899,-3.5882,-3.5915,-3.5975,-3.6026,-3.6097,-3.6018,-3.6126,-3.6129,-3.6101,-3.623,-3.6236,-3.6344,-3.6195,-3.6197,-3.6199,0,-3.5222,-3.5299,-3.5444,-3.5529,-3.5564,-3.5634,-3.5723,-3.5795,-3.5873,-3.5899,-3.5962,-3.5981,-3.6078,-3.6039,-3.6173,-3.6119,-3.6166,-3.6198,-3.6203,-3.6212,-3.6167,-3.6241,-3.638,-3.6395,-3.6225,-3.6223,-3.6221,0,-3.5281,-3.5422,-3.5527,-3.5567,-3.567,-3.5719,-3.5764,-3.5839,-3.5893,-3.5972,-3.6008,-3.6098,-3.6146,-3.6216,-3.6259,-3.6228,-3.6389,-3.6355,-3.6413,-3.6412,-3.6444,-3.6441,-3.6589,-3.6479,-3.6478,-3.6478,-3.6478,0,-3.5398,-3.5485,-3.5555,-3.5619,-3.5718,-3.5761,-3.5859,-3.5905,-3.5972,-3.6046,-3.6068,-3.6138,-3.6192,-3.627,-3.6306,-3.6411,-3.6433,-3.6457,-3.6465,-3.6453,-3.645,-3.6482,-3.6475,-3.6483,-3.6482,-3.6481,-3.648,0,-3.5479,-3.5529,-3.5644,-3.5733,-3.5758,-3.5827,-3.5903,-3.5967,-3.601,-3.6104,-3.6129,-3.6196,-3.6289,-3.634,-3.6457,-3.6481,-3.6598,-3.6603,-3.657,-3.6573,-3.6628,-3.6621,-3.6801,-3.6826,-3.67,-3.6702,-3.6703,0,-3.5548,-3.5616,-3.5712,-3.5763,-3.5809,-3.5891,-3.5946,-3.5993,-3.605,-3.6145,-3.6198,-3.6292,-3.6369,-3.6517,-3.6577,-3.6667,-3.6673,-3.673,-3.6686,-3.6673,-3.6672,-3.6666,-3.6672,-3.6736,-3.6737,-3.6738,-3.6739,0,-3.5665,-3.5687,-3.5765,-3.5853,-3.5918,-3.599,-3.6061,-3.6102,-3.616,-3.6224,-3.6318,-3.6378,-3.6498,-3.6591,-3.6686,-3.6735,-3.6747,-3.6753,-3.6771,-3.6758,-3.6736,-3.6747,-3.6588,-3.6748,-3.6747,-3.6746,-3.6746,-3.6745,-3.5741,-3.5802,-3.5879,-3.5966,-3.6025,-3.6091,-3.6155,-3.6206,-3.6286,-3.6385,-3.6409,-3.6509,-3.6588,-3.6717,-3.6768,-3.6848,-3.6837,-3.6864,-3.687,-3.6875,-3.6876,-3.6726,-3.6866,-3.6866,-3.6866,-3.6866,-3.6865,0,-3.5857,-3.5908,-3.5988,-3.6086,-3.6155,-3.6161,-3.6241,-3.6298,-3.6385,-3.6458,-3.6533,-3.6643,-3.6734,-3.6803,-3.6896,-3.6947,-3.6955,-3.697,-3.6965,-3.6976,-3.6881,-3.6855,-3.6962,-3.6961,-3.6961,-3.6961,-3.6961,-3.6961,-3.5925,-3.6028,-3.606,-3.6193,-3.6244,-3.6341,-3.6386,-3.6448,-3.6505,-3.6626,-3.6702,-3.6746,-3.6817,-3.6916,-3.7001,-3.7019,-3.7051,-3.7065,-3.7084,-3.6993,-3.6982,-3.6972,-3.6948,-3.7073,-3.7073,-3.7172,-3.7172,-3.7173]},{"header":{"parameterUnit":"m.s-1","parameterCategory":1,"la1":30.2991,"la2":30.254,"lo1":-89.0895,"lo2":-89.0444,"dy":0.0017,"dx":0.0017,"nx":28,"ny":28,"refTime":"2026-01-05T09:00:00:Z","depth":0,"parameterNumber":3,"parameterNumberName":"V-component_of_WINDS"},"data":[0,0,0,0,0,0,0,0,0,0,0,0,0,0,0,0,0,0,0,0,0,0,0,0,0,0,0,0,0,0,0,0,0,0,0,0,0,0,0,0,0,0,0,0,0,0,0,0,0,0,0,0,0,0,0,0,0,0,1.0549,1.055,0,1.0668,1.067,1.0671,1.0742,1.0742,1.0742,1.0742,1.0863,1.0866,1.0869,0,0,0,0,0,0,0,0,0,0,0,0,0,1.0381,1.0383,1.0549,1.055,1.0552,1.0668,1.067,1.0671,1.0741,1.0742,1.0742,1.0743,1.0862,1.0865,1.0869,0,0,0,0,0,0,0,0,0,0,0,0,0,1.0472,1.0384,1.0549,1.0601,1.0607,1.0668,1.067,1.0672,1.0741,1.0742,1.0742,1.0743,1.0861,1.0865,1.0869,1.0887,0,0,1.0883,1.0885,0,0,0,0,0,0,0,0,1.0467,1.0478,1.0592,1.0597,1.0604,1.0691,1.0655,1.0744,1.0741,1.069,1.0742,1.0743,1.0805,1.0814,1.0835,1.0893,1.0898,1.0883,1.0886,1.0888,1.0889,0,0,0,0,0,0,0,1.046,1.0473,1.0596,1.0593,1.0601,1.0618,1.0632,1.0672,1.0744,1.0695,1.07,1.0713,1.0809,1.0831,1.0839,1.09,1.0883,1.0887,1.089,1.0891,1.0978,1.0978,0,0,0,0,0,0,1.0446,1.0468,1.0592,1.06,1.0535,1.0621,1.0636,1.0662,1.0743,1.0756,1.0713,1.0716,1.0823,1.0834,1.0843,1.087,1.0888,1.0892,1.0894,1.0979,1.0978,1.0978,0,0,0,0,0,0,1.0442,1.0456,1.0588,1.0535,1.0553,1.0623,1.0652,1.0664,1.0687,1.0757,1.077,1.0723,1.0824,1.0837,1.0876,1.0875,1.0894,1.0898,1.0979,1.0978,1.0978,1.0922,0,0,0,0,0,0,1.0437,1.0455,1.0462,1.0535,1.0556,1.0618,1.0652,1.0666,1.0695,1.07,1.077,1.0782,1.0825,1.0869,1.088,1.0881,1.0901,1.0979,1.0979,1.0978,1.0925,1.092,1.0916,0,0,0,0,0,1.0431,1.0441,1.0462,1.0477,1.0567,1.0618,1.063,1.0681,1.0694,1.0702,1.0747,1.0779,1.0873,1.0872,1.0886,1.0888,1.098,1.0979,1.0978,1.0926,1.0921,1.0916,0,0,0,0,0,0,1.0366,1.0452,1.0476,1.0511,1.0557,1.063,1.0642,1.0673,1.0716,1.0719,1.078,1.0795,1.0828,1.0862,1.0859,1.091,1.093,1.0932,1.0886,1.0881,1.0877,1.0868,1.0905,0,0,0,0,0,1.0356,1.0391,1.0464,1.0487,1.0509,1.0571,1.0595,1.0631,1.068,1.07,1.0748,1.0795,1.0835,1.086,1.0901,1.093,1.0946,1.0938,1.0934,1.093,1.0931,1.0949,1.0947,1.0975,1.0975,1.0975,0,0,1.0335,1.0386,1.0404,1.0475,1.0515,1.055,1.0587,1.0622,1.0648,1.0705,1.0745,1.0782,1.0838,1.0872,1.089,1.0902,1.0927,1.0929,1.0926,1.0929,1.0948,1.0945,1.0943,1.0975,1.0975,1.0975,0,0,1.0315,1.0357,1.0381,1.0421,1.0481,1.0522,1.0528,1.0597,1.0624,1.0665,1.0709,1.0741,1.0808,1.0847,1.0875,1.087,1.0901,1.0882,1.0859,1.0877,1.0874,1.0873,1.0871,1.087,1.0882,1.0882,1.0882,0,1.0281,1.0335,1.039,1.0422,1.0452,1.0506,1.0532,1.0567,1.0637,1.0656,1.0669,1.0756,1.0797,1.0841,1.084,1.0861,1.087,1.0874,1.087,1.0869,1.0868,1.0867,1.0867,1.0879,1.088,1.088,1.088,0,1.0291,1.0328,1.034,1.0407,1.0439,1.0467,1.0526,1.0551,1.0583,1.0623,1.0665,1.0717,1.0769,1.0782,1.0814,1.0831,1.0837,1.0859,1.0881,1.0862,1.0862,1.0862,1.0875,1.0876,1.0877,1.0878,0,0,1.0233,1.033,1.0334,1.0365,1.0436,1.0465,1.0496,1.0548,1.0569,1.0615,1.0643,1.0699,1.072,1.0753,1.0789,1.0804,1.0797,1.0825,1.0827,1.0818,1.0819,1.0802,1.0801,1.0818,1.0818,1.0819,1.0815,0,1.0223,1.0282,1.0332,1.0372,1.0407,1.0459,1.0486,1.0532,1.0571,1.0605,1.0648,1.0687,1.0712,1.0732,1.0749,1.0794,1.0798,1.0795,1.0844,1.0845,1.0828,1.0801,1.0783,1.0777,1.0815,1.0815,1.0815,0,1.0219,1.0265,1.0308,1.0376,1.0392,1.0416,1.0468,1.05,1.0554,1.0581,1.0617,1.0655,1.069,1.0708,1.0758,1.0754,1.0778,1.0803,1.0804,1.081,1.0829,1.0807,1.0776,1.0775,1.0816,1.0816,1.0816,0,1.0173,1.0244,1.028,1.0305,1.0385,1.04,1.0434,1.0488,1.0516,1.0561,1.058,1.0628,1.0655,1.0692,1.0742,1.0751,1.0786,1.0808,1.0809,1.0808,1.0814,1.0813,1.0786,1.0829,1.0829,1.0829,1.0829,0,1.0157,1.0181,1.026,1.0282,1.0311,1.0369,1.0396,1.0434,1.0482,1.0512,1.056,1.0587,1.0652,1.0687,1.0727,1.0762,1.0773,1.0796,1.0806,1.0792,1.0789,1.0807,1.0809,1.0829,1.0829,1.0829,1.0829,0,1.0109,1.0163,1.0206,1.0278,1.0297,1.0315,1.0377,1.04,1.0441,1.0478,1.049,1.0555,1.0599,1.0653,1.0713,1.074,1.0771,1.0787,1.0753,1.0759,1.0757,1.0756,1.0742,1.0743,1.0783,1.0783,1.0783,0,1.0096,1.0116,1.019,1.0214,1.0247,1.0284,1.0314,1.0371,1.0399,1.0462,1.0477,1.0525,1.0566,1.0633,1.0685,1.0732,1.0749,1.0741,1.0757,1.0742,1.0749,1.0748,1.075,1.0737,1.0736,1.0735,1.0735,0,1.0065,1.0091,1.0132,1.0181,1.0215,1.0257,1.0301,1.0317,1.0384,1.0413,1.0459,1.0491,1.0553,1.06,1.0653,1.0688,1.0722,1.073,1.0732,1.0718,1.0697,1.0708,1.0742,1.073,1.073,1.0731,1.0731,1.0731,1.0035,1.0055,1.0111,1.0155,1.0194,1.0234,1.0259,1.0304,1.0343,1.0398,1.043,1.0474,1.0528,1.0604,1.0637,1.0673,1.0685,1.0689,1.069,1.069,1.0686,1.0692,1.0683,1.0683,1.0683,1.0683,1.0684,0,1.0007,1.0045,1.0085,1.0145,1.0179,1.0209,1.0259,1.0286,1.0325,1.0372,1.0411,1.0464,1.0509,1.0565,1.0615,1.0632,1.0649,1.0643,1.0643,1.065,1.0672,1.0664,1.0629,1.0629,1.0629,1.0629,1.0629,1.0629,0.9996,1.0033,1.0065,1.0122,1.016,1.0205,1.0231,1.0268,1.0306,1.0363,1.0401,1.0437,1.0488,1.0541,1.0584,1.06,1.0616,1.0605,1.0625,1.0644,1.0648,1.0653,1.0647,1.0608,1.0608,1.06,1.06,1.06]}]]